RH
43 41 42 44 43 42 43 45 48 52 53 52 45 44 41 39 40 36 32 28 24 30 30 26 36 42 35 18 14 24 20 15 20 17 17 23 28 33 39 47 52 46 30
40 42 42 46 44 43 42 41 42 47 50 51 47 47 51 40 37 34 31 29 28 36 32 31 40 43 35 16 13 22 20 14 17 24 30 39 46 47 49 50 43 28 21
41 42 46 47 47 44 43 42 40 41 45 47 45 43 48 44 37 31 31 30 32 49 38 39 41 39 34 18 13 17 15 15 18 23 30 38 35 33 31 25 19 17 16
44 47 49 48 48 53 48 49 44 40 41 45 45 44 42 49 35 32 32 33 34 47 59 55 48 38 26 21 14 16 14 15 17 18 29 28 22 16 15 15 15 16 16
49 51 56 53 47 51 56 53 54 45 41 41 42 42 47 47 41 39 38 36 36 52 69 63 51 38 27 23 18 16 15 15 15 19 23 24 21 14 14 15 16 18 19
45 55 50 48 47 47 51 52 54 51 48 44 43 42 45 48 48 46 45 41 41 58 69 67 56 41 30 26 22 16 16 15 16 21 22 18 21 15 15 15 17 19 20
44 48 52 45 44 45 47 51 54 53 51 49 50 52 48 51 54 53 57 54 56 66 75 74 62 45 36 29 25 19 16 17 20 22 21 21 16 16 16 17 17 19 20
43 45 47 46 42 43 46 50 53 53 51 51 52 52 51 53 54 55 59 61 62 75 78 86 70 52 41 35 28 25 19 18 21 23 23 23 17 16 17 17 17 19 20
45 47 48 50 52 49 49 54 54 54 50 49 50 50 47 51 54 57 58 62 62 65 70 80 81 60 44 43 34 29 23 19 22 24 23 24 18 17 17 17 17 19 19
46 48 49 51 56 62 62 51 56 61 58 55 54 49 46 45 47 51 54 60 62 64 69 74 82 70 54 44 43 32 27 23 20 23 23 23 19 18 17 17 17 19 20
35 42 44 49 54 57 62 65 57 54 64 65 61 59 55 50 47 43 45 51 55 61 69 76 83 79 64 52 46 44 38 27 26 26 24 22 19 18 18 18 19 19 20
26 30 38 41 45 48 55 61 63 62 62 68 72 69 60 58 56 57 56 49 50 57 65 76 84 86 74 61 53 47 43 41 36 28 27 23 19 19 19 20 20 20 21
17 23 28 31 36 41 45 50 58 65 67 71 73 78 74 70 71 72 66 62 61 60 64 73 80 82 75 66 61 55 48 43 50 40 30 25 22 21 20 20 20 21 22
10 14 18 28 31 34 38 44 50 56 64 68 64 69 82 82 77 77 79 75 66 66 66 71 76 80 81 66 61 60 57 53 50 50 42 30 25 23 22 20 19 20 21
11 10 11 16 22 30 34 38 43 47 55 65 71 72 76 83 83 82 81 83 78 70 71 73 76 82 90 85 74 71 60 59 55 54 47 43 35 27 25 24 23 21 20
16 14 13 12 14 20 28 34 40 45 49 57 65 68 66 70 86 86 88 87 84 83 80 81 80 79 86 88 89 77 66 64 61 55 53 47 44 39 30 27 25 28 26
15 16 17 16 14 15 22 27 37 42 49 54 57 62 63 69 74 84 90 92 92 90 90 92 90 89 88 92 92 86 79 75 68 61 56 52 49 48 46 38 28 27 28
19 18 16 18 18 15 15 24 33 39 46 53 56 57 64 66 69 80 90 93 93 92 90 90 87 90 92 94 94 96 90 78 73 69 65 62 54 52 51 49 47 36 31
22 21 20 20 19 22 19 20 30 40 46 54 55 62 67 67 66 71 80 93 93 90 89 87 86 84 85 87 86 87 85 79 77 73 65 67 65 60 59 55 53 50 39
24 22 21 21 21 22 22 23 31 40 46 58 59 62 60 65 69 69 74 89 95 93 88 86 84 82 83 87 86 84 82 80 78 76 73 68 69 75 67 58 57 56 51
35 28 26 26 25 27 25 27 31 37 48 62 63 67 66 64 65 63 65 73 87 85 80 80 80 87 85 86 86 87 84 81 77 76 71 70 70 78 74 65 63 60 59
45 47 39 36 41 42 33 28 34 43 44 59 69 72 80 72 67 64 64 62 80 85 81 81 81 83 81 83 82 85 80 74 70 69 74 74 71 71 72 69 68 64 66
56 57 57 58 52 52 45 35 38 43 54 67 77 74 77 82 78 71 68 63 71 85 83 82 79 83 83 84 80 85 82 73 69 66 66 68 71 74 79 76 70 69 67
62 61 62 64 60 51 47 37 45 56 56 65 74 83 77 78 70 71 74 75 72 73 79 82 82 78 83 88 91 91 84 76 72 68 71 69 70 70 74 75 68 68 68
70 69 75 76 78 65 66 52 56 74 73 71 87 94 89 78 81 78 76 76 76 73 75 79 82 79 81 88 89 88 82 76 75 78 76 74 74 76 78 83 82 79 70
77 80 79 71 66 63 80 76 82 86 74 86 98 99 92 78 80 78 67 62 64 71 73 76 81 84 84 84 87 89 86 76 72 78 85 79 81 83 86 89 85 82 77